Location: Saratoga Springs
(43.0831°N, 73.7850°W)
Time: 06:02:52
(UTC-04:00)

Vanguard 2 - Pass Details

Date: 20 April 2024
Orbit: 553 x 2914 km, 32.9° (Epoch: 17 May)

Event Time Altitude Azimuth Distance (km) Brightness Sun altitude
Rises 07:25:28 0° 275° (W) 6,731 11.7 13.7°
Reaches altitude 10° 07:30:15 10° 270° (W) 5,743 11.4 14.6°
Maximum altitude 07:46:03 43° 207° (SSW) 3,326 10.7 17.5°
Drops below altitude 10° 07:58:14 10° 141° (SE) 4,469 12.1 19.7°
Sets 08:01:28 0° 135° (SE) 5,172 12.5 20.3°
